{"data":{"norad_id":61726,"intl_designator":"2024-196V","name":"STARLINK-32478","alt_names":[],"object_type":"PAYLOAD","status":"ACTIVE","operator":null,"country":"US","launch_date":"2024-10-30","launch_site_code":"AFETR","launch_vehicle":null,"mission":null,"orbit_class":"UNKNOWN","rcs_meters":null,"size_class":null,"mass_kg":null,"dimensions":null,"purposes":["comms"],"wikipedia_slug":null,"has_3d_model":false,"image_url":null,"decayed_at":null,"tle_current":{"epoch":"2026-09-21T17:10:00.007104Z","epoch_age_seconds":83894,"freshness":"FRESH","line1":"1 61726U 24196V   26264.71527786  .00001384  00000+0  52086-4 0  9997","line2":"2 61726  53.1599 268.3635 0001309  87.3188 272.7964 15.34400781107207","mean_motion":15.34400781,"eccentricity":0.0001309,"inclination_deg":53.1599,"raan_deg":268.3635,"arg_perigee_deg":87.3188,"mean_anomaly_deg":272.7964,"bstar":5.2086e-5,"rev_number":10720,"period_min":93.847710313437,"perigee_km":461.80545322791,"apogee_km":463.59638459509,"semimajor_km":6840.8379189115,"source":"CELESTRAK","updated_at":"2026-09-22T09:00:49.438677Z"}}}